Simultaneous Nadir Overpasses (SNOs) Predictions

Prediction of SNOs between GOES-16 and LANDSAT-8 Satellite Orbit:

Table of predicted SNOs for the next 14.0 days since TLE Epoch: 10/12/2019
Index Date Time (GOES-16) GOES-16 Lat,Lon LANDSAT-8 Lat,Lon Distance(km) Time Diff (sec)
1 10/12/2019 03:05:08 -0.01, -75.19 0.42, -73.20 227.20 6
2 10/12/2019 15:25:10 0.01, -75.20 0.66, -78.36 358.05 80
3 10/14/2019 15:12:59 0.01, -75.21 0.03, -75.40 21.33 80
4 10/16/2019 15:03:28 0.01, -75.22 -0.61, -72.45 315.96 80
5 10/17/2019 03:24:52 -0.01, -75.21 -0.51, -77.63 275.08 80
6 10/19/2019 03:10:01 -0.00, -75.22 0.13, -74.68 62.15 80
7 10/21/2019 02:57:50 0.00, -75.23 0.77, -71.72 399.51 80
8 10/21/2019 15:19:06 -0.00, -75.25 0.32, -76.88 185.60 80
9 10/23/2019 15:09:34 -0.00, -75.26 -0.26, -73.92 152.49 80
10 10/24/2019 03:30:58 0.00, -75.26 -0.85, -79.11 438.03 80
11 10/25/2019 14:57:23 -0.00, -75.29 -0.90, -70.96 491.19 80




NCC Satellite Simultaneous Nadir Overpasses (SNOs) Prediction Service
